| time (UTC) | temp C | wind direction | speed KPH | gust KPH | rain 1hr cm | rain 24hr cm | rain mn cm | humidity % | barometer mb |
| 20260507160043 | 11 | 283 | 4.8 | 8.0 | 0.00 | 0.03 | 0.00 | 58 | 1011.8 |
| 20260507154538 | 11 | 211 | 6.4 | 14.5 | 0.00 | 0.03 | 0.00 | 57 | 1011.9 |
| 20260507153033 | 11 | 244 | 1.6 | 11.3 | 0.00 | 0.03 | 0.00 | 61 | 1012.1 |
| 20260507151530 | 10 | 312 | 0.0 | 9.7 | 0.00 | 0.03 | 0.00 | 61 | 1012.1 |
| 20260507150028 | 10 | 257 | 1.6 | 8.0 | 0.00 | 0.03 | 0.00 | 63 | 1012.2 |
| 20260507144526 | 10 | 282 | 3.2 | 8.0 | 0.00 | 0.03 | 0.00 | 63 | 1012.3 |
| 20260507143038 | 9 | 206 | 8.0 | 11.3 | 0.00 | 0.03 | 0.00 | 66 | 1012.4 |
| 20260507141520 | 8 | 249 | 6.4 | 12.9 | 0.00 | 0.03 | 0.00 | 65 | 1012.4 |
| 20260507140020 | 8 | 199 | 3.2 | 8.0 | 0.00 | 0.03 | 0.00 | 66 | 1012.5 |
| 20260507134517 | 8 | 51 | 1.6 | 6.4 | 0.00 | 0.08 | 0.00 | 68 | 1012.7 |
| 20260507133012 | 7 | 98 | 3.2 | 8.0 | 0.00 | 0.08 | 0.00 | 71 | 1012.8 |
| 20260507131510 | 7 | 89 | 1.6 | 8.0 | 0.00 | 0.08 | 0.00 | 74 | 1012.8 |
| 20260507130003 | 6 | 104 | 3.2 | 6.4 | 0.00 | 0.13 | 0.00 | 76 | 1012.8 |
| 20260507124501 | 6 | 122 | 3.2 | 6.4 | 0.00 | 0.13 | 0.00 | 78 | 1012.9 |
| 20260507123122 | 5 | 60 | 1.6 | 6.4 | 0.00 | 0.13 | 0.00 | 81 | 1012.9 |
| 20260507121559 | 5 | 62 | 1.6 | 3.2 | 0.00 | 0.13 | 0.00 | 84 | 1013.0 |
| 20260507120057 | 4 | 69 | 0.0 | 4.8 | 0.00 | 0.13 | 0.00 | 87 | 1013.0 |
| 20260507114558 | 4 | 49 | 0.0 | 1.6 | 0.00 | 0.18 | 0.00 | 92 | 1013.1 |
| 20260507113055 | 3 | 308 | 0.0 | 6.4 | 0.00 | 0.18 | 0.00 | 95 | 1013.3 |
| 20260507111553 | 4 | 342 | 0.0 | 1.6 | 0.00 | 0.18 | 0.00 | 95 | 1013.3 |
| 20260507110054 | 4 | 347 | 0.0 | 3.2 | 0.00 | 0.18 | 0.00 | 95 | 1013.1 |
| 20260507104558 | 3 | 340 | 0.0 | 1.6 | 0.00 | 0.23 | 0.00 | 95 | 1012.8 |
| 20260507103050 | 3 | 349 | 0.0 | 0.0 | 0.00 | 0.23 | 0.00 | 95 | 1012.6 |
| 20260507101549 | 3 | 349 | 0.0 | 1.6 | 0.00 | 0.23 | 0.00 | 95 | 1012.3 |
| 20260507100056 | 3 | 48 | 0.0 | 1.6 | 0.00 | 0.23 | 0.00 | 95 | 1012.3 |
| 20260507094549 | 3 | 14 | 0.0 | 0.0 | 0.00 | 0.33 | 0.00 | 95 | 1012.5 |
| 20260507093046 | 2 | 14 | 0.0 | 0.0 | 0.00 | 0.33 | 0.00 | 95 | 1012.4 |
| 20260507091544 | 2 | 13 | 0.0 | 0.0 | 0.00 | 0.33 | 0.00 | 95 | 1012.4 |
| 20260507090050 | 2 | 12 | 0.0 | 0.0 | 0.00 | 0.33 | 0.00 | 95 | 1012.3 |
| 20260507084550 | 3 | 13 | 0.0 | 0.0 | 0.00 | 0.46 | 0.00 | 95 | 1012.3 |
| 20260507083039 | 2 | 353 | 0.0 | 1.6 | 0.00 | 0.46 | 0.00 | 95 | 1012.4 |
| 20260507081550 | 3 | 212 | 0.0 | 0.0 | 0.00 | 0.46 | 0.00 | 95 | 1012.4 |
| 20260507080038 | 3 | 211 | 0.0 | 0.0 | 0.00 | 0.46 | 0.00 | 94 | 1012.4 |
| 20260507074535 | 3 | 212 | 0.0 | 0.0 | 0.00 | 0.64 | 0.00 | 94 | 1012.2 |
| 20260507073033 | 3 | 211 | 0.0 | 0.0 | 0.00 | 0.64 | 0.00 | 94 | 1012.2 |
| 20260507071534 | 4 | 212 | 0.0 | 1.6 | 0.00 | 0.64 | 0.00 | 94 | 1012.2 |
| 20260507070032 | 4 | 212 | 0.0 | 0.0 | 0.00 | 0.64 | 0.00 | 94 | 1012.3 |
| 20260507064534 | 5 | 212 | 0.0 | 0.0 | 0.00 | 0.71 | 0.00 | 94 | 1012.2 |
| 20260507063021 | 5 | 211 | 0.0 | 0.0 | 0.00 | 0.71 | 0.00 | 94 | 1012.5 |
| 20260507061519 | 5 | 211 | 0.0 | 1.6 | 0.00 | 0.71 | 0.00 | 94 | 1012.7 |
| 20260507060020 | 5 | 212 | 0.0 | 1.6 | 0.00 | 0.71 | 0.00 | 94 | 1012.8 |
| 20260507054515 | 5 | 212 | 0.0 | 1.6 | 0.00 | 0.86 | 0.00 | 94 | 1012.7 |
| 20260507053012 | 5 | 211 | 0.0 | 1.6 | 0.00 | 0.86 | 0.00 | 94 | 1013.0 |
| 20260507051510 | 6 | 212 | 0.0 | 1.6 | 0.00 | 0.86 | 0.00 | 94 | 1012.9 |
| 20260507050017 | 6 | 223 | 0.0 | 3.2 | 0.00 | 0.94 | 0.00 | 94 | 1013.1 |
| 20260507044505 | 6 | 226 | 1.6 | 4.8 | 0.00 | 0.94 | 0.00 | 93 | 1013.2 |
| 20260507043004 | 6 | 230 | 0.0 | 3.2 | 0.00 | 0.94 | 0.00 | 93 | 1013.3 |
| 20260507041505 | 6 | 209 | 0.0 | 3.2 | 0.00 | 0.94 | 0.00 | 93 | 1013.1 |
| 20260507040059 | 6 | 223 | 1.6 | 4.8 | 0.00 | 0.94 | 0.00 | 93 | 1013.0 |
| 20260507034559 | 6 | 247 | 1.6 | 6.4 | 0.00 | 0.97 | 0.94 | 93 | 1013.0 |
| 20260507033057 | 6 | 235 | 1.6 | 3.2 | 0.00 | 0.97 | 0.94 | 93 | 1013.0 |
| 20260507031557 | 6 | 223 | 0.0 | 1.6 | 0.00 | 0.97 | 0.94 | 93 | 1013.0 |
| 20260507030057 | 6 | 214 | 0.0 | 1.6 | 0.00 | 0.97 | 0.94 | 92 | 1013.1 |
| 20260507024557 | 6 | 212 | 0.0 | 1.6 | 0.00 | 1.09 | 0.94 | 92 | 1013.0 |
| 20260507023056 | 6 | 223 | 0.0 | 1.6 | 0.00 | 1.09 | 0.94 | 92 | 1012.9 |
| 20260507021555 | 6 | 233 | 0.0 | 1.6 | 0.00 | 1.09 | 0.94 | 92 | 1012.9 |
| 20260507020110 | 6 | 234 | 0.0 | 1.6 | 0.00 | 1.09 | 0.94 | 92 | 1013.1 |
| 20260507014559 | 6 | 234 | 0.0 | 1.6 | 0.00 | 1.17 | 0.94 | 92 | 1013.5 |
| 20260507013053 | 6 | 234 | 0.0 | 1.6 | 0.00 | 1.17 | 0.94 | 91 | 1013.3 |
| 20260507011550 | 6 | 217 | 0.0 | 1.6 | 0.00 | 1.17 | 0.94 | 91 | 1013.2 |
| 20260507010059 | 6 | 199 | 0.0 | 3.2 | 0.00 | 1.17 | 0.94 | 91 | 1013.0 |
| 20260507004547 | 6 | 192 | 0.0 | 1.6 | 0.00 | 1.35 | 0.94 | 91 | 1012.9 |
| 20260507003044 | 6 | 48 | 0.0 | 0.0 | 0.00 | 1.35 | 0.94 | 90 | 1012.6 |
| 20260507001544 | 6 | 49 | 0.0 | 1.6 | 0.00 | 1.35 | 0.94 | 90 | 1012.4 |
| 20260507000042 | 6 | 13 | 0.0 | 1.6 | 0.00 | 1.35 | 0.94 | 89 | 1012.3 |
| 20260506234540 | 6 | 3 | 0.0 | 1.6 | 0.00 | 1.63 | 0.94 | 89 | 1012.2 |
| 20260506233040 | 6 | 355 | 0.0 | 1.6 | 0.00 | 1.63 | 0.94 | 89 | 1012.2 |
| 20260506231551 | 6 | 1 | 0.0 | 4.8 | 0.00 | 1.63 | 0.94 | 88 | 1012.1 |
| 20260506230050 | 6 | 309 | 3.2 | 6.4 | 0.00 | 1.63 | 0.94 | 90 | 1012.1 |
| 20260506224539 | 6 | 41 | 0.0 | 4.8 | 0.00 | 1.93 | 0.94 | 91 | 1011.9 |
| 20260506223034 | 6 | 70 | 1.6 | 4.8 | 0.00 | 1.93 | 0.94 | 92 | 1011.7 |
| 20260506221531 | 6 | 8 | 1.6 | 6.4 | 0.00 | 1.93 | 0.94 | 93 | 1011.4 |
| 20260506220035 | 6 | 22 | 1.6 | 9.7 | 0.00 | 1.93 | 0.94 | 93 | 1011.3 |
| 20260506214531 | 6 | 359 | 1.6 | 9.7 | 0.00 | 2.29 | 0.94 | 93 | 1011.2 |
| 20260506213027 | 5 | 324 | 4.8 | 14.5 | 0.03 | 2.29 | 0.94 | 94 | 1011.2 |
| 20260506211626 | 5 | 20 | 3.2 | 16.1 | 0.03 | 2.29 | 0.94 | 94 | 1011.1 |
| 20260506210025 | 5 | 291 | 3.2 | 12.9 | 0.03 | 2.29 | 0.94 | 93 | 1010.9 |
| 20260506204519 | 5 | 324 | 4.8 | 14.5 | 0.03 | 2.51 | 0.94 | 93 | 1010.8 |
| 20260506203016 | 6 | 282 | 3.2 | 11.3 | 0.00 | 2.49 | 0.91 | 92 | 1010.6 |
| 20260506201525 | 7 | 287 | 8.0 | 14.5 | 0.00 | 2.49 | 0.91 | 89 | 1010.4 |
| 20260506200008 | 9 | 299 | 8.0 | 17.7 | 0.00 | 2.49 | 0.91 | 85 | 1010.2 |
| 20260506194508 | 10 | 230 | 11.3 | 19.3 | 0.00 | 2.49 | 0.91 | 82 | 1009.7 |
| 20260506193005 | 10 | 204 | 6.4 | 12.9 | 0.00 | 2.49 | 0.91 | 85 | 1009.6 |
| 20260506191505 | 10 | 202 | 3.2 | 8.0 | 0.00 | 2.49 | 0.91 | 88 | 1009.7 |
| 20260506190005 | 10 | 155 | 1.6 | 4.8 | 0.00 | 2.49 | 0.91 | 86 | 1009.7 |
| 20260506184514 | 10 | 356 | 0.0 | 1.6 | 0.00 | 2.49 | 0.91 | 84 | 1009.5 |
| 20260506183002 | 10 | 292 | 0.0 | 1.6 | 0.00 | 2.49 | 0.91 | 83 | 1009.6 |
| 20260506181502 | 10 | 211 | 0.0 | 3.2 | 0.00 | 2.49 | 0.91 | 82 | 1009.6 |
| 20260506180002 | 10 | 221 | 0.0 | 4.8 | 0.00 | 2.49 | 0.91 | 83 | 1009.6 |
| 20260506174600 | 10 | 228 | 0.0 | 3.2 | 0.00 | 2.49 | 0.91 | 84 | 1009.7 |
| 20260506173059 | 10 | 60 | 0.0 | 3.2 | 0.00 | 2.49 | 0.91 | 85 | 1009.8 |
| 20260506171601 | 10 | 228 | 0.0 | 4.8 | 0.00 | 2.49 | 0.91 | 86 | 1009.9 |
| 20260506170053 | 9 | 252 | 0.0 | 3.2 | 0.00 | 2.49 | 0.91 | 87 | 1009.9 |
| 20260506164551 | 9 | 225 | 0.0 | 3.2 | 0.00 | 2.49 | 0.91 | 87 | 1009.8 |
| 20260506163046 | 9 | 328 | 1.6 | 4.8 | 0.00 | 2.49 | 0.91 | 88 | 1009.6 |
| 20260506161544 | 9 | 342 | 0.0 | 3.2 | 0.00 | 2.49 | 0.91 | 91 | 1009.7 |